OPS 4682 DEB, 18675

Orbit data source: Space-Track

OPS 4682 DEB, 18675 is space debris in LEO originally from a launch on Sat, 03 Apr 1965 UTC launched from the Air Force Western Test Range (AFWTR). Debris objects in space refer to the collection of defunct objects orbiting the Earth. Examples of debris include non-operational satellites, rocket bodies, and fragments generated from explosions, collisions, or faulty payload assembly.

Loading next visibility...
Identifier
18675, 1965-027AH
Orbit
LEO
Country
Flag of USUS
Related business
Manufacturer
Unknown
Mission
Spacecraft
Bus & Motor
Unknown
Mass
Unknown
Launch date (UTC)
1965-04-03 (61 years ago)
Launch vehicle
Unknown
Launch site
Air Force Western Test Range (AFWTR)
Object type
Payload
Rocket body
Debris
Shape & HBR
Unknown shape, 0.1 m
Radar Cross Section
Small (<0.1 m²)

Expand to show TLE details & history
Last TLE update: 1 day ago

TLE from 1 day ago
0 OPS 4682 DEB
1 18675U 65027AH  25340.02100480  .00000909  00000-0  30046-2 0  9999
2 18675  90.2388 350.1627 0025195  63.3723 324.1796 12.99712251833509
Epoch: 2025-12-06T00:30Z
TLE epoch observation values (Epoch: 2025-12-06T00:30:14.814Z)
Latitude
27.41807°
Longitude
-92.57701°
Altitude
1,250.975 km
Speed
7.239 km/s
True Right ascension
23h 20m 09s
True Declination
27° 17' 13"
Sunlit
Object was in daylight at epoch
Visualization orbit readout
Latitude
Unknown
Longitude
Unknown
Altitude
Unknown
Speed
Unknown
Apparent Right ascension
Unknown
Apparent Declination
Unknown
Sunlit
N/A
Visualization observer readout
Local Sidereal Time
03:28:20
Azimuth
Unknown
Elevation
Unknown
Doppler factor
Unknown
Orbital elements
Apogee altitude
1,279.587 km
Perigee altitude
1,241.097 km
Semi-major axis
7,638.479 km
Eccentricity
0.00252
Inclination
90.2388°
RAAN
350.1627°
Arg. of periapsis
63.3723°
True anomaly
324.0102°
Mean anomaly
324.1796°
Eccentric anomaly
324.09494°
Mean motion
3.25112 °/min
Orbital period
110.73 mins
BSTAR
0.0030046
Loading maneuver chart data...
Computing Atmospheric mass density...
Loading historical data...
Loading historical data...
Loading historical data...
Loading historical data...
Loading historical data...
Loading historical data...
Loading historical data...

Documentation

Showing up to 5 results
|